Weather History for Red Deer, AB

Change the Weather History Date:

Tuesday, July 9, 2013

  Actual Average Record
Temperature  
Mean Temperature 62 °F -  
Max Temperature 79 °F 73 °F 87 °F (2012)
Min Temperature 45 °F 47 °F 44 °F (2003)
Degree Days  
Heating Degree Days 3    
Growing Degree Days 12 (Base 50)    
Moisture  
Dew Point 51 °F    
Average Humidity 68    
Maximum Humidity 94    
Minimum Humidity 32    
Precipitation  
Precipitation 0.00 in 0.11 in - ()
Sea Level Pressure  
Sea Level Pressure 30.06 in    
Wind  
Wind Speed 4 mph ()    
Max Wind Speed 9 mph    
Max Gust Speed -    
Visibility 15.0 miles    
Events      
Averages and records for this station are not official NWS values.
T = Trace of Precipitation, MM = Missing Value Source: Averaged Metar Reports

Daily Weather History Graph

Daily Weather History Graph

Search for Another Location

Airport:

Trip Planner

Search our weather history database for the weather conditions in past years. The results will help you decide how hot, cold, wet, or windy it might be!

Date:

Astronomy

Jul. 09, 2013 Rise Set
Actual Time 5:26 AM MDT 9:54 PM MDT
Civil Twilight 4:39 AM MDT 10:41 PM MDT
Nautical Twilight 3:26 AM MDT 11:53 PM MDT
Astronomical Twilight 2:13 AM MDT 1:08 AM MDT
Moon 7:13 AM MDT (7/9) 10:11 PM MDT (7/9)
Length of Visible Light 18h 02m
Length of Day
16h 28m
New Moon, 2% of the Moon is Illuminated
Jul 9
New Moon
Jul 15
First Quarter
Jul 22
Full
Jul 29
Last Quarter
Aug 6
New

Hourly Weather History & Observations

Time (MDT) Temp. Windchill Dew Point Humidity Pressure Visibility Wind Dir Wind Speed Gust Speed Precip Events Conditions
12:00 AM 52 °F - 49 °F 84% 30.09 in 15 mi SSW 4.6 mph - -  
12:00 AM 51.8 °F - 48.2 °F 88% 30.09 in 15.0 mi SSW 5.8 mph - N/A   Clear
1:00 AM 50.0 °F - 48.2 °F 94% 30.09 in 15.0 mi SSW 5.8 mph - N/A   Clear
2:00 AM 50.0 °F - 48.2 °F 94% 30.08 in 15.0 mi SSW 6.9 mph - N/A   Clear
3:00 AM 48.2 °F - 46.4 °F 93% 30.10 in 15.0 mi SSW 5.8 mph - N/A   Clear
4:00 AM 48.2 °F - 46.4 °F 93% 30.10 in 15.0 mi SSW 4.6 mph - N/A   Clear
5:00 AM 46.4 °F 43.5 °F 44.6 °F 93% 30.10 in 15.0 mi South 5.8 mph - N/A   Clear
6:00 AM 46 °F - 44 °F 90% 30.10 in 15 mi South 2.3 mph - -  
6:00 AM 46.4 °F - 44.6 °F 93% 30.10 in 15.0 mi South 2.3 mph - N/A   Clear
7:00 AM 48.2 °F - 46.4 °F 93% 30.10 in 15.0 mi SSW 2.3 mph - N/A   Partly Cloudy
8:00 AM 53.6 °F - 50.0 °F 88% 30.11 in 15.0 mi SSW 6.9 mph - N/A   Clear
9:00 AM 57.2 °F - 50.0 °F 77% 30.10 in 15.0 mi SW 3.5 mph - N/A   Clear
10:00 AM 62.6 °F - 53.6 °F 72% 30.10 in 15.0 mi WSW 2.3 mph - N/A   Partly Cloudy
11:00 AM 68.0 °F - 53.6 °F 60% 30.09 in 15.0 mi WSW 3.5 mph - N/A   Partly Cloudy
12:00 PM 71 °F - 54 °F 45% 30.08 in 15 mi SW 3.5 mph - -   Scattered Clouds
12:00 PM 71.6 °F - 53.6 °F 53% 30.08 in 15.0 mi SW 2.3 mph - N/A   Partly Cloudy
1:00 PM 73.4 °F - 53.6 °F 50% 30.08 in 15.0 mi West 2.3 mph - N/A   Partly Cloudy
2:00 PM 77.0 °F - 50.0 °F 39% 30.07 in 15.0 mi WSW 2.3 mph - N/A   Partly Cloudy
3:00 PM 77.0 °F - 46.4 °F 34% 30.05 in 15.0 mi Calm Calm - N/A   Partly Cloudy
4:00 PM 77.0 °F - 51.8 °F 41% 30.05 in 15.0 mi South 5.8 mph - N/A   Mostly Cloudy
5:00 PM 78.8 °F - 51.8 °F 39% 30.04 in 15.0 mi SSW 6.9 mph - N/A   Mostly Cloudy
6:00 PM 78 °F - 54 °F 32% 30.02 in 15 mi South 8.1 mph - -   Scattered Clouds
6:00 PM 78.8 °F - 53.6 °F 42% 30.02 in 15.0 mi South 8.1 mph - N/A   Mostly Cloudy
7:00 PM 77.0 °F - 55.4 °F 47% 30.00 in 15.0 mi South 6.9 mph - N/A   Mostly Cloudy
8:00 PM 75.2 °F - 59.0 °F 57% 29.99 in 15.0 mi SSE 9.2 mph - N/A   Scattered Clouds
9:00 PM 69.8 °F - 57.2 °F 64% 29.97 in 15.0 mi SSE 6.9 mph - N/A   Partly Cloudy
10:00 PM 64.4 °F - 57.2 °F 77% 29.97 in 15.0 mi SSE 8.1 mph - N/A   Partly Cloudy
11:00 PM 62.6 °F - 55.4 °F 77% 29.97 in 15.0 mi SSE 4.6 mph - N/A   Partly Cloudy